Meteo orario Al Kufah

Oggi, 20 Ottobre, Martedi

Tempo Temperatura Precipitazioni Vento Pressione Umidità
00:00 +26°C° 0 mm 2 m/s 758 mm Hg 20%
01:00 +26°C° 0 mm 3 m/s 758 mm Hg 20%
02:00 +25°C° 0 mm 3 m/s 757 mm Hg 20%
03:00 +25°C° 0 mm 3 m/s 757 mm Hg 20%
04:00 +25°C° 0 mm 3 m/s 757 mm Hg 21%
05:00 +25°C° 0 mm 4 m/s 758 mm Hg 22%
06:00 +23°C° 0 mm 4 m/s 758 mm Hg 23%
07:00 +27°C° 0 mm 4 m/s 758 mm Hg 21%
08:00 +29°C° 0 mm 5 m/s 758 mm Hg 19%
09:00 +32°C° 0 mm 5 m/s 758 mm Hg 17%
10:00 +34°C° 0 mm 5 m/s 758 mm Hg 15%
11:00 +36°C° 0 mm 5 m/s 758 mm Hg 13%
12:00 +39°C° 0 mm 6 m/s 758 mm Hg 12%
13:00 +39°C° 0 mm 6 m/s 757 mm Hg 11%
14:00 +39°C° 0 mm 6 m/s 757 mm Hg 11%
15:00 +39°C° 0 mm 7 m/s 756 mm Hg 11%
16:00 +36°C° 0 mm 6 m/s 756 mm Hg 12%
17:00 +34°C° 0 mm 5 m/s 756 mm Hg 14%
18:00 +32°C° 0 mm 5 m/s 756 mm Hg 16%
19:00 +30°C° 0 mm 5 m/s 757 mm Hg 17%
20:00 +29°C° 0 mm 4 m/s 757 mm Hg 18%
21:00 +28°C° 0 mm 4 m/s 757 mm Hg 18%
22:00 +28°C° 0 mm 4 m/s 757 mm Hg 20%
23:00 +27°C° 0 mm 4 m/s 757 mm Hg 22%

Domani, 21 Ottobre, Mercoledi

Tempo Temperatura Precipitazioni Vento Pressione Umidità
00:00 +27°C° 0 mm 4 m/s 757 mm Hg 23%
01:00 +26°C° 0 mm 4 m/s 757 mm Hg 25%
02:00 +26°C° 0 mm 4 m/s 757 mm Hg 27%
03:00 +26°C° 0 mm 4 m/s 756 mm Hg 28%
04:00 +25°C° 0 mm 4 m/s 757 mm Hg 31%
05:00 +25°C° 0 mm 3 m/s 757 mm Hg 33%
06:00 +24°C° 0 mm 3 m/s 757 mm Hg 36%
07:00 +26°C° 0 mm 4 m/s 758 mm Hg 31%
08:00 +29°C° 0 mm 5 m/s 758 mm Hg 27%
09:00 +32°C° 0 mm 6 m/s 758 mm Hg 23%
10:00 +34°C° 0 mm 6 m/s 758 mm Hg 20%
11:00 +36°C° 0 mm 7 m/s 758 mm Hg 18%
12:00 +39°C° 0 mm 7 m/s 758 mm Hg 16%
13:00 +39°C° 0 mm 7 m/s 757 mm Hg 15%
14:00 +39°C° 0 mm 7 m/s 757 mm Hg 15%
15:00 +39°C° 0 mm 8 m/s 756 mm Hg 14%
16:00 +36°C° 0 mm 7 m/s 756 mm Hg 15%
17:00 +34°C° 0 mm 6 m/s 757 mm Hg 17%
18:00 +32°C° 0 mm 5 m/s 757 mm Hg 18%
19:00 +32°C° 0 mm 4 m/s 757 mm Hg 19%
20:00 +30°C° 0 mm 4 m/s 757 mm Hg 20%
21:00 +30°C° 0 mm 4 m/s 757 mm Hg 20%
22:00 +29°C° 0 mm 4 m/s 757 mm Hg 21%
23:00 +29°C° 0 mm 4 m/s 757 mm Hg 22%

Dopodomani, 22 Ottobre, Giovedi

Tempo Temperatura Precipitazioni Vento Pressione Umidità
00:00 +28°C° 0 mm 4 m/s 757 mm Hg 23%
01:00 +28°C° 0 mm 4 m/s 757 mm Hg 23%
02:00 +27°C° 0 mm 4 m/s 757 mm Hg 24%
03:00 +26°C° 0 mm 3 m/s 757 mm Hg 24%
04:00 +26°C° 0 mm 4 m/s 757 mm Hg 25%
05:00 +26°C° 0 mm 4 m/s 758 mm Hg 25%
06:00 +25°C° 0 mm 5 m/s 758 mm Hg 26%
07:00 +28°C° 0 mm 5 m/s 758 mm Hg 23%
08:00 +30°C° 0 mm 5 m/s 758 mm Hg 20%
09:00 +33°C° 0 mm 6 m/s 759 mm Hg 17%
10:00 +35°C° 0 mm 6 m/s 758 mm Hg 15%
11:00 +38°C° 0 mm 6 m/s 758 mm Hg 12%
12:00 +40°C° 0 mm 7 m/s 758 mm Hg 10%
13:00 +40°C° 0 mm 7 m/s 757 mm Hg 10%
14:00 +40°C° 0 mm 7 m/s 757 mm Hg 9%
15:00 +40°C° 0 mm 7 m/s 756 mm Hg 9%
16:00 +38°C° 0 mm 6 m/s 756 mm Hg 10%
17:00 +35°C° 0 mm 5 m/s 756 mm Hg 11%
18:00 +32°C° 0 mm 4 m/s 756 mm Hg 12%
19:00 +30°C° 0 mm 4 m/s 757 mm Hg 12%
20:00 +30°C° 0 mm 4 m/s 757 mm Hg 13%
21:00 +29°C° 0 mm 4 m/s 757 mm Hg 13%
22:00 +28°C° 0 mm 4 m/s 757 mm Hg 14%
23:00 +28°C° 0 mm 4 m/s 757 mm Hg 15%

23 Ottobre, Venerdi

Tempo Temperatura Precipitazioni Vento Pressione Umidità
00:00 +28°C° 0 mm 4 m/s 757 mm Hg 15%
01:00 +27°C° 0 mm 5 m/s 757 mm Hg 18%
02:00 +26°C° 0 mm 5 m/s 757 mm Hg 21%
03:00 +25°C° 0 mm 5 m/s 756 mm Hg 24%
04:00 +25°C° 0 mm 5 m/s 757 mm Hg 27%
05:00 +23°C° 0 mm 5 m/s 757 mm Hg 30%
06:00 +23°C° 0 mm 5 m/s 757 mm Hg 33%
07:00 +26°C° 0 mm 6 m/s 757 mm Hg 30%
08:00 +28°C° 0 mm 6 m/s 758 mm Hg 26%
09:00 +30°C° 0 mm 7 m/s 758 mm Hg 23%
10:00 +34°C° 0 mm 7 m/s 758 mm Hg 19%
11:00 +36°C° 0 mm 7 m/s 757 mm Hg 16%
12:00 +39°C° 0 mm 8 m/s 757 mm Hg 12%
13:00 +39°C° 0 mm 8 m/s 757 mm Hg 11%
14:00 +39°C° 0 mm 8 m/s 756 mm Hg 11%
15:00 +40°C° 0 mm 8 m/s 756 mm Hg 10%
16:00 +36°C° 0 mm 7 m/s 756 mm Hg 12%
17:00 +34°C° 0 mm 6 m/s 756 mm Hg 13%
18:00 +32°C° 0 mm 5 m/s 756 mm Hg 15%
19:00 +30°C° 0 mm 5 m/s 756 mm Hg 16%
20:00 +29°C° 0 mm 5 m/s 756 mm Hg 17%
21:00 +28°C° 0 mm 5 m/s 757 mm Hg 18%
22:00 +27°C° 0 mm 5 m/s 757 mm Hg 20%
23:00 +27°C° 0 mm 5 m/s 757 mm Hg 21%

24 Ottobre, Sabato

Tempo Temperatura Precipitazioni Vento Pressione Umidità
00:00 +26°C° 0 mm 5 m/s 757 mm Hg 23%
01:00 +25°C° 0 mm 5 m/s 756 mm Hg 24%
02:00 +25°C° 0 mm 4 m/s 756 mm Hg 25%
03:00 +23°C° 0 mm 4 m/s 756 mm Hg 27%
04:00 +23°C° 0 mm 4 m/s 756 mm Hg 28%
05:00 +22°C° 0 mm 4 m/s 756 mm Hg 30%
06:00 +22°C° 0 mm 4 m/s 756 mm Hg 32%
07:00 +25°C° 0 mm 4 m/s 757 mm Hg 28%
08:00 +28°C° 0 mm 4 m/s 757 mm Hg 24%
09:00 +30°C° 0 mm 4 m/s 757 mm Hg 19%
10:00 +33°C° 0 mm 4 m/s 757 mm Hg 17%
11:00 +35°C° 0 mm 4 m/s 757 mm Hg 14%
12:00 +37°C° 0 mm 4 m/s 756 mm Hg 11%
13:00 +37°C° 0 mm 4 m/s 756 mm Hg 11%
14:00 +37°C° 0 mm 4 m/s 756 mm Hg 10%
15:00 +38°C° 0 mm 4 m/s 756 mm Hg 9%
16:00 +35°C° 0 mm 4 m/s 756 mm Hg 11%
17:00 +33°C° 0 mm 4 m/s 756 mm Hg 12%
18:00 +29°C° 0 mm 4 m/s 756 mm Hg 14%
19:00 +28°C° 0 mm 3 m/s 756 mm Hg 15%
20:00 +27°C° 0 mm 3 m/s 756 mm Hg 15%
21:00 +27°C° 0 mm 3 m/s 756 mm Hg 16%
22:00 +25°C° 0 mm 2 m/s 756 mm Hg 17%
23:00 +24°C° 0 mm 1 m/s 756 mm Hg 19%

25 Ottobre, Domenica

Tempo Temperatura Precipitazioni Vento Pressione Umidità
00:00 +22°C° 0 mm 1 m/s 756 mm Hg 21%
01:00 +22°C° 0 mm 1 m/s 756 mm Hg 24%
02:00 +19°C° 0 mm 0 m/s 756 mm Hg 27%
03:00 +19°C° 0 mm 0 m/s 756 mm Hg 30%
04:00 +18°C° 0 mm 0 m/s 756 mm Hg 32%
05:00 +18°C° 0 mm 0 m/s 756 mm Hg 34%
06:00 +18°C° 0 mm 0 m/s 756 mm Hg 36%
07:00 +21°C° 0 mm 0 m/s 756 mm Hg 28%
08:00 +25°C° 0 mm 0 m/s 757 mm Hg 20%
09:00 +28°C° 0 mm 0 m/s 757 mm Hg 12%
10:00 +30°C° 0 mm 0 m/s 757 mm Hg 11%
11:00 +31°C° 0 mm 0 m/s 756 mm Hg 10%
12:00 +35°C° 0 mm 1 m/s 756 mm Hg 9%
13:00 +35°C° 0 mm 1 m/s 755 mm Hg 8%
14:00 +36°C° 0 mm 1 m/s 755 mm Hg 8%
15:00 +37°C° 0 mm 2 m/s 754 mm Hg 7%
16:00 +34°C° 0 mm 2 m/s 754 mm Hg 9%
17:00 +30°C° 0 mm 2 m/s 754 mm Hg 11%
18:00 +27°C° 0 mm 2 m/s 754 mm Hg 13%
19:00 +26°C° 0 mm 1 m/s 754 mm Hg 16%
20:00 +25°C° 0 mm 1 m/s 755 mm Hg 18%
21:00 +24°C° 0 mm 1 m/s 755 mm Hg 21%
22:00 +24°C° 0 mm 1 m/s 755 mm Hg 20%
23:00 +23°C° 0 mm 1 m/s 755 mm Hg 18%

26 Ottobre, Lunedi

Tempo Temperatura Precipitazioni Vento Pressione Umidità
00:00 +23°C° 0 mm 1 m/s 755 mm Hg 16%
01:00 +23°C° 0 mm 1 m/s 755 mm Hg 16%
02:00 +23°C° 0 mm 1 m/s 755 mm Hg 17%
03:00 +21°C° 0 mm 2 m/s 755 mm Hg 17%
04:00 +21°C° 0 mm 2 m/s 755 mm Hg 17%
05:00 +20°C° 0 mm 2 m/s 756 mm Hg 18%
06:00 +20°C° 0 mm 2 m/s 756 mm Hg 19%
07:00 +24°C° 0 mm 1 m/s 756 mm Hg 16%
08:00 +27°C° 0 mm 1 m/s 757 mm Hg 13%
09:00 +30°C° 0 mm 1 m/s 757 mm Hg 11%
10:00 +29°C° 0 mm 0 m/s 757 mm Hg 9%
11:00 +31°C° 0 mm 0 m/s 757 mm Hg 8%
12:00 +33°C° 0 mm 0 m/s 756 mm Hg 7%
13:00 +33°C° 0 mm 0 m/s 756 mm Hg 6%
14:00 +36°C° 0 mm 1 m/s 756 mm Hg 6%
15:00 +36°C° 0 mm 1 m/s 755 mm Hg 5%
16:00 +34°C° 0 mm 1 m/s 756 mm Hg 7%
17:00 +31°C° 0 mm 2 m/s 756 mm Hg 8%
18:00 +28°C° 0 mm 2 m/s 756 mm Hg 10%
19:00 +27°C° 0 mm 3 m/s 756 mm Hg 11%
20:00 +27°C° 0 mm 3 m/s 756 mm Hg 12%
21:00 +26°C° 0 mm 3 m/s 757 mm Hg 13%
22:00 +25°C° 0 mm 3 m/s 756 mm Hg 14%
23:00 +25°C° 0 mm 2 m/s 756 mm Hg 14%
Mostrare altro

Abbiamo bisogno del tuo consenso

Meteoprog e i nostri fornitori di servizi possono memorizzare e accedere a dati personali come cookie, identificatori di dispositivi o altre tecnologie simili sul tuo dispositivo e possono elaborare tali dati per personalizzare i contenuti e gli annunci, nonché fornire funzionalità dei social media e analizzarne il traffico.

  • Archiviare e/o accedere alle informazioni sul tuo dispositivo

    Cookie, identificatori di dispositivi o altre informazioni possono essere memorizzati o resi accessibili sul tuo dispositivo per le finalità sopra indicate.

  • Annunci e contenuti personalizzati, misurazione di annunci e contenuti, approfondimenti sul pubblico e sviluppo di prodotti

    Gli annunci e i contenuti possono essere personalizzati in base a un profilo. È possibile aggiungere più dati per personalizzare meglio annunci e contenuti. È possibile misurare il rendimento degli annunci e dei contenuti. È possibile ricavare informazioni sul pubblico che ha visto gli annunci e i contenuti. Tali dati possono essere utilizzati per sviluppare o migliorare l'esperienza, i sistemi e il software dell'utente.

Cliccando su “Accetto”, acconsenti all'uso di cookie, identificatori di dispositivo, web beacon o altre tecnologie simili. Puoi modificare le impostazioni nel browser del tuo dispositivo.

Per determinati scopi, è possibile fare affidamento su interessi legali, piuttosto che sul consenso. Puoi approfondire questo argomento consultando la nostra Informativa sulla privacy e sui cookie.